Budapest Ferihegy, Hungary

4:35 AM CEST on October 17, 2017 (GMT +0200)
Ferihegy

Weather History for LHBP - April, 2014

Change the Weather History Date:

Sunday, April 13, 2014

  Actual Average Record
Temperature  
Mean Temperature 48 °F -  
Max Temperature 64 °F 64 °F 73 °F (2007)
Min Temperature 33 °F 42 °F 28 °F (1997)
Degree Days  
Heating Degree Days 16    
Moisture  
Dew Point 38 °F    
Average Humidity 67    
Maximum Humidity 93    
Minimum Humidity 32    
Precipitation  
Precipitation 0.00 in - - ()
Sea Level Pressure  
Sea Level Pressure 29.99 in    
Wind  
Wind Speed 5 mph ()    
Max Wind Speed 15 mph    
Max Gust Speed -    
Visibility 5.8 miles    
Events Rain    
Averages and records for this station are not official NWS values.
T = Trace of Precipitation, MM = Missing Value Source: Averaged Metar Reports

Daily Weather History Graph

Daily Weather History Graph

Search for Another Location

Airport or City:

Trip Planner

Search our weather history database for the weather conditions in past years. The results will help you decide how hot, cold, wet, or windy it might be!

Date:

Astronomy

Apr. 13, 2014 Rise Set
Actual Time 5:58 AM CEST 7:29 PM CEST
Civil Twilight 5:26 AM CEST 8:01 PM CEST
Nautical Twilight 4:47 AM CEST 8:40 PM CEST
Astronomical Twilight 4:06 AM CEST 9:22 PM CEST
Moon 5:42 PM CEST (4/13) 4:55 AM CEST (4/13)
Length of Visible Light 14h 34m
Length of Day
13h 30m
Waxing Gibbous, 96% of the Moon is Illuminated
Apr 13
Waxing Gibbous
Apr 15
Full
Apr 22
Last Quarter
Apr 29
New
May 7
First Quarter

Hourly Weather History & Observations

Time (CEST) Temp. Windchill Dew Point Humidity Pressure Visibility Wind Dir Wind Speed Gust Speed Precip Events Conditions
12:00 AM 41.0 °F 39.0 °F 35.6 °F 81% 30.04 in - Variable 3.5 mph - N/A   Clear
12:30 AM 42.8 °F - 37.4 °F 81% 30.04 in - Calm Calm - N/A   Clear
1:00 AM 41.0 °F - 37.4 °F 87% 30.04 in - Variable 1.2 mph - N/A   Clear
1:30 AM 39.2 °F - 35.6 °F 87% 30.04 in - Calm Calm - N/A   Clear
2:00 AM 37.4 °F - 35.6 °F 93% 30.01 in - Variable 1.2 mph - N/A   Clear
2:30 AM 37.4 °F - 33.8 °F 87% 30.01 in - Calm Calm - N/A   Clear
3:00 AM 35.6 °F 32.8 °F 33.8 °F 93% 30.01 in - Variable 3.5 mph - N/A   Clear
3:30 AM 35.6 °F 32.8 °F 33.8 °F 93% 30.01 in - Variable 3.5 mph - N/A   Clear
4:00 AM 33.8 °F - 32.0 °F 93% 30.01 in - Variable 2.3 mph - N/A   Clear
4:30 AM 33.8 °F 30.8 °F 32.0 °F 93% 30.01 in - Variable 3.5 mph - N/A   Clear
5:00 AM 33.8 °F 30.8 °F 32.0 °F 93% 29.98 in - Variable 3.5 mph - N/A   Clear
5:30 AM 33.8 °F 29.6 °F 32.0 °F 93% 29.98 in - NE 4.6 mph - N/A   Clear
6:00 AM 33.8 °F - 32.0 °F 93% 30.01 in - Variable 2.3 mph - N/A   Clear
6:30 AM 33.8 °F - 32.0 °F 93% 30.01 in - Variable 2.3 mph - N/A   Clear
7:00 AM 33.8 °F - 32.0 °F 93% 30.01 in 5.0 mi Variable 1.2 mph - N/A   Unknown
7:30 AM 41.0 °F - 39.2 °F 93% 30.01 in 5.0 mi Calm Calm - N/A   Unknown
8:00 AM 46.4 °F 45.2 °F 41.0 °F 81% 30.01 in - Variable 3.5 mph - N/A   Clear
8:30 AM 48.2 °F - 41.0 °F 76% 30.01 in - SE 5.8 mph - N/A   Clear
9:00 AM 50.0 °F - 41.0 °F 71% 30.01 in - Variable 3.5 mph - N/A   Clear
9:30 AM 51.8 °F - 41.0 °F 67% 30.01 in - Variable 2.3 mph - N/A   Clear
10:00 AM 53.6 °F - 39.2 °F 58% 30.01 in - Variable 3.5 mph - N/A   Clear
10:30 AM 57.2 °F - 41.0 °F 55% 30.01 in - Variable 3.5 mph - N/A   Clear
11:00 AM 57.2 °F - 39.2 °F 51% 30.01 in - SW 5.8 mph - N/A   Clear
11:30 AM 59.0 °F - 39.2 °F 48% 30.01 in - West 6.9 mph - N/A   Clear
12:00 PM 59.0 °F - 39.2 °F 48% 29.98 in 6.2 mi SW 4.6 mph - N/A   Partly Cloudy
12:30 PM 62.6 °F - 41.0 °F 45% 29.98 in - Variable 3.5 mph - N/A   Clear
1:00 PM 62.6 °F - 39.2 °F 42% 29.98 in - WSW 5.8 mph - N/A   Clear
1:30 PM 62.6 °F - 37.4 °F 39% 29.98 in - WSW 6.9 mph - N/A   Clear
2:00 PM 64.4 °F - 35.6 °F 34% 29.95 in - WNW 9.2 mph - N/A   Clear
2:30 PM 64.4 °F - 33.8 °F 32% 29.95 in - WNW 11.5 mph - N/A   Clear
3:00 PM 62.6 °F - 33.8 °F 34% 29.95 in - WNW 10.4 mph - N/A   Clear
3:30 PM 64.4 °F - 35.6 °F 34% 29.95 in - WNW 10.4 mph - N/A   Clear
4:00 PM 62.6 °F - 35.6 °F 37% 29.95 in - NW 11.5 mph - N/A   Clear
4:30 PM 62.6 °F - 35.6 °F 37% 29.95 in - WNW 11.5 mph - N/A   Clear
5:00 PM 62.6 °F - 37.4 °F 39% 29.95 in - West 12.7 mph - N/A   Clear
5:30 PM 62.6 °F - 39.2 °F 42% 29.95 in 6.2 mi WNW 10.4 mph - N/A   Mostly Cloudy
6:00 PM 60.8 °F - 42.8 °F 52% 29.95 in 6.2 mi WNW 15.0 mph - N/A   Mostly Cloudy
6:30 PM 59.0 °F - 42.8 °F 55% 29.95 in - WNW 12.7 mph - N/A   Clear
7:00 PM 59.0 °F - 44.6 °F 59% 29.95 in - WNW 13.8 mph - N/A   Clear
7:30 PM 57.2 °F - 46.4 °F 67% 29.95 in - WNW 13.8 mph - N/A   Clear
8:00 PM 55.4 °F - 46.4 °F 72% 29.98 in - WNW 11.5 mph - N/A   Clear
8:30 PM 55.4 °F - 44.6 °F 67% 29.98 in - WNW 10.4 mph - N/A   Clear
9:00 PM 55.4 °F - 42.8 °F 63% 29.98 in 6.2 mi WNW 15.0 mph - N/A Rain Light Rain Showers
9:30 PM 53.6 °F - 42.8 °F 67% 29.98 in - WNW 11.5 mph - N/A   Clear
10:00 PM 53.6 °F - 44.6 °F 72% 29.98 in - WNW 10.4 mph - N/A   Clear
10:30 PM 51.8 °F - 44.6 °F 76% 29.98 in - WNW 10.4 mph - N/A   Clear
11:00 PM 51.8 °F - 42.8 °F 71% 29.98 in - NW 9.2 mph - N/A   Clear
11:30 PM 51.8 °F - 42.8 °F 71% 29.98 in - NW 10.4 mph - N/A   Clear